EW2470 Weather Reports


time (UTC)temp
C
wind
direction
speed
KPH
gust
KPH
rain 1hr
cm
rain 24hr
cm
rain mn
cm
humidity
%
barometer
mb
20260507105016 19 225 3.2 8.0 0.43 2.54 2.13 94 1009.4
20260507104017 19 158 4.8 16.1 0.25 2.36 1.96 94 1009.0
20260507103016 19 158 4.8 11.3 0.18 2.29 1.88 94 1008.2
20260507102037 19 180 3.2 6.4 0.15 2.26 1.85 94 1009.3
20260507101016 19 180 1.6 6.4 0.13 2.24 1.83 94 1009.6
20260507100036 19 180 3.2 11.3 0.03 2.13 1.73 94 1009.7
20260507095017 19 158 3.2 11.3 0.00 2.11 1.70 94 1010.0
20260507094036 19 180 3.2 12.9 0.00 2.11 1.70 94 1009.8
20260507093037 19 158 6.4 14.5 0.00 2.11 1.70 94 1009.8
20260507092016 19 158 4.8 12.9 0.00 2.11 1.70 94 1010.0
20260507091017 19 158 3.2 9.7 0.00 2.11 1.70 94 1010.2
20260507090016 19 180 3.2 9.7 0.00 2.11 1.70 94 1010.6
20260507085016 19 180 3.2 6.4 0.00 2.11 1.70 94 1010.8
20260507084016 19 180 3.2 6.4 0.03 2.11 1.70 94 1010.4
20260507083056 19 180 3.2 9.7 0.03 2.11 1.70 94 1010.5
20260507082036 19 225 3.2 6.4 0.05 2.11 1.70 93 1010.1
20260507081016 19 180 1.6 4.8 0.20 2.11 1.70 93 1009.9
20260507080016 19 225 1.6 4.8 0.28 2.11 1.70 93 1009.6
20260507075016 19 180 3.2 12.9 0.38 2.11 1.70 93 1009.9
20260507074016 18 225 4.8 12.9 0.41 2.08 1.68 93 1010.6
20260507073016 18 180 6.4 12.9 0.46 2.08 1.68 93 1009.2
20260507072016 19 113 11.3 20.9 0.46 2.06 1.65 93 1008.8
20260507071016 19 225 4.8 11.3 0.36 1.91 1.50 93 1012.1
20260507070016 19 180 4.8 9.7 0.46 1.83 1.42 92 1011.3
20260507065016 19 180 3.2 6.4 0.48 1.73 1.32 92 1011.3
20260507064015 19 225 1.6 6.4 0.53 1.68 1.27 92 1011.1
20260507063016 19 180 4.8 17.7 0.58 1.63 1.22 92 1011.0
20260507062016 19 135 3.2 6.4 0.61 1.60 1.19 92 1010.5
20260507061035 20 180 3.2 8.0 0.66 1.55 1.14 92 1011.6
20260507060015 20 180 1.6 6.4 0.56 1.37 0.97 92 1012.0
20260507055016 20 225 4.8 9.7 0.51 1.24 0.84 92 1011.9
20260507054016 20 180 6.4 14.5 0.48 1.14 0.74 92 1011.6
20260507053017 20 225 6.4 16.1 0.48 1.04 0.64 92 1012.0
20260507052036 20 248 4.8 12.9 0.51 0.99 0.58 92 1011.5
20260507051036 20 180 8.0 27.4 0.43 0.89 0.48 91 1011.8
20260507050016 20 225 6.4 14.5 0.41 0.81 0.41 91 1011.7
20260507045019 20 225 8.0 22.5 0.38 0.74 0.33 91 1011.5
20260507044015 20 203 6.4 14.5 0.36 0.66 0.25 91 1011.8
20260507043020 20 180 6.4 14.5 0.30 0.56 0.15 91 1012.0
20260507042015 20 225 4.8 14.5 0.28 0.48 0.08 91 1011.8
20260507041018 20 203 4.8 17.7 0.30 0.46 0.05 90 1011.9
20260507040017 20 225 6.4 17.7 0.28 0.41 0.41 90 1011.7
20260507035057 20 180 8.0 17.7 0.25 0.36 0.36 90 1011.6
20260507034017 20 225 6.4 11.3 0.23 0.30 0.30 90 1012.2
20260507033016 20 225 3.2 8.0 0.20 0.25 0.25 89 1012.2
20260507032017 20 225 4.8 9.7 0.18 0.20 0.20 89 1012.6
20260507031016 21 225 4.8 8.0 0.13 0.15 0.15 88 1012.6
20260507030017 21 248 6.4 14.5 0.13 0.13 0.13 87 1012.1
20260507025017 21 203 4.8 11.3 0.10 0.10 0.10 85 1011.7
20260507024018 21 225 4.8 14.5 0.08 0.08 0.08 84 1012.1
20260507023017 22 225 4.8 14.5 0.05 0.05 0.05 83 1011.9
20260507022019 22 0.0 3.2 0.03 0.03 0.03 82 1011.5
20260507021038 22 0.0 3.2 0.03 0.03 0.03 79 1010.9
20260507020017 23 180 1.6 6.4 0.00 0.00 0.00 77 1010.9
20260507015018 23 225 4.8 12.9 0.00 0.00 0.00 74 1011.5
20260507014017 23 225 3.2 8.0 0.00 0.00 0.00 72 1011.4
20260507013017 24 203 1.6 3.2 0.00 0.00 0.00 71 1010.9
20260507012017 24 180 3.2 6.4 0.00 0.00 0.00 71 1010.9
20260507011018 25 0.0 3.2 0.00 0.00 0.00 70 1011.3
20260507010017 25 0.0 1.6 0.00 0.00 0.00 70 1011.4
20260507005038 25 0.0 3.2 0.00 0.00 0.00 69 1011.1
20260507004017 25 0.0 3.2 0.00 0.00 0.00 68 1011.4
20260507003017 25 0.0 3.2 0.00 0.00 0.00 67 1011.7
20260507002038 25 225 1.6 3.2 0.00 0.00 0.00 67 1011.5
20260507001017 26 225 1.6 4.8 0.00 0.00 0.00 67 1011.3
20260507000017 26 248 1.6 4.8 0.00 0.00 0.00 67 1011.3
20260506235038 26 180 4.8 11.3 0.00 0.00 0.00 66 1010.9
20260506234017 26 225 3.2 12.9 0.00 0.00 0.00 65 1011.3
20260506233018 26 225 1.6 6.4 0.00 0.00 0.00 65 1010.8
20260506232017 26 180 1.6 6.4 0.00 0.00 0.00 64 1010.4
20260506231037 27 180 3.2 11.3 0.00 0.00 0.00 64 1010.8
20260506230037 27 225 1.6 4.8 0.00 0.00 0.00 63 1011.2
20260506225018 27 225 3.2 8.0 0.00 0.00 0.00 63 1011.6
20260506224037 27 180 3.2 9.7 0.00 0.00 0.00 62 1011.0
20260506223017 27 180 3.2 6.4 0.00 0.00 0.00 61 1011.1
20260506222038 27 225 3.2 8.0 0.00 0.00 0.00 60 1011.2
20260506221018 28 225 4.8 16.1 0.00 0.00 0.00 59 1011.1
20260506220017 28 225 3.2 9.7 0.00 0.00 0.00 59 1011.0
20260506215017 28 225 6.4 20.9 0.00 0.00 0.00 57 1011.2
20260506214017 28 225 4.8 14.5 0.00 0.00 0.00 57 1011.0
20260506213017 29 225 4.8 9.7 0.00 0.00 0.00 56 1011.0
20260506212019 29 225 9.7 19.3 0.00 0.00 0.00 55 1011.2
20260506211017 30 225 6.4 16.1 0.00 0.00 0.00 55 1011.2
20260506210017 30 225 6.4 16.1 0.00 0.00 0.00 57 1011.5
20260506205019 29 225 3.2 9.7 0.00 0.00 0.00 56 1011.7
20260506204037 29 225 8.0 22.5 0.00 0.00 0.00 55 1011.9
20260506203017 29 248 6.4 17.7 0.00 0.00 0.00 55 1012.0
20260506202017 29 225 8.0 16.1 0.00 0.00 0.00 53 1012.2
20260506201017 30 225 8.0 17.7 0.00 0.00 0.00 55 1012.4
20260506200016 29 225 9.7 17.7 0.00 0.00 0.00 55 1012.4
20260506195018 29 225 8.0 19.3 0.00 0.00 0.00 54 1012.6
20260506194017 30 225 6.4 19.3 0.00 0.00 0.00 53 1012.8
20260506193016 29 225 8.0 22.5 0.00 0.00 0.00 54 1013.0
20260506192018 29 225 6.4 14.5 0.00 0.00 0.00 54 1013.1
20260506191037 29 225 8.0 19.3 0.00 0.00 0.00 54 1013.1
20260506190018 29 225 8.0 19.3 0.00 0.00 0.00 53 1013.3
20260506185016 29 225 11.3 22.5 0.00 0.00 0.00 53 1013.5
20260506184017 29 225 9.7 20.9 0.00 0.00 0.00 50 1013.6
20260506183016 29 180 8.0 19.3 0.00 0.00 0.00 51 1013.5
20260506182017 29 225 8.0 16.1 0.00 0.00 0.00 49 1013.5
20260506181016 29 225 8.0 16.1 0.00 0.00 0.00 48 1013.6
20260506180017 28 180 8.0 22.5 0.00 0.00 0.00 49 1013.5
20260506175017 28 225 8.0 20.9 0.00 0.00 0.00 48 1013.6
20260506174016 28 225 8.0 20.9 0.00 0.00 0.00 48 1013.8
20260506173016 28 248 9.7 22.5 0.00 0.00 0.00 48 1013.8
20260506172039 28 248 4.8 12.9 0.00 0.00 0.00 52 1014.0
20260506171017 28 225 8.0 19.3 0.00 0.00 0.00 48 1014.2
20260506170016 28 225 6.4 14.5 0.00 0.00 0.00 50 1014.2
20260506165017 27 225 8.0 17.7 0.00 0.00 0.00 55 1014.4
20260506164016 27 225 9.7 19.3 0.00 0.00 0.00 55 1014.6
20260506163016 27 225 6.4 14.5 0.00 0.00 0.00 60 1014.8
20260506162016 27 225 9.7 19.3 0.00 0.00 0.00 56 1014.9
20260506161016 26 225 8.0 17.7 0.00 0.00 0.00 58 1015.1
20260506160137 26 248 6.4 16.1 0.00 0.00 0.00 59 1015.1
20260506155016 26 225 9.7 25.7 0.00 0.00 0.00 60 1014.9
20260506154036 26 225 6.4 16.1 0.00 0.00 0.00 63 1014.9
20260506153016 25 158 8.0 16.1 0.00 0.00 0.00 62 1014.9
20260506152039 25 225 8.0 16.1 0.00 0.00 0.00 66 1014.9
20260506151017 24 225 6.4 16.1 0.00 0.00 0.00 67 1014.9
20260506150017 24 225 6.4 17.7 0.00 0.00 0.00 70 1015.0
20260506145037 23 225 6.4 16.1 0.00 0.00 0.00 71 1014.7
20260506144018 23 225 8.0 16.1 0.00 0.00 0.00 72 1014.7
20260506143036 23 225 8.0 17.7 0.00 0.00 0.00 73 1014.7
20260506142017 22 225 6.4 14.5 0.00 0.00 0.00 74 1014.6
20260506141016 22 180 3.2 6.4 0.00 0.00 0.00 75 1014.4
20260506140036 22 180 4.8 9.7 0.00 0.00 0.00 77 1014.1
20260506135017 21 225 6.4 17.7 0.00 0.00 0.00 78 1014.2
20260506134017 21 180 4.8 14.5 0.00 0.00 0.00 81 1014.0
20260506133036 20 158 6.4 14.5 0.00 0.00 0.00 82 1014.1
20260506132017 20 203 4.8 11.3 0.00 0.00 0.00 82 1014.1
20260506131016 19 180 3.2 11.3 0.00 0.00 0.00 83 1014.0
20260506130016 19 180 4.8 11.3 0.00 0.00 0.00 82 1014.1
20260506125018 18 180 3.2 9.7 0.00 0.00 0.00 83 1013.9
20260506124037 18 180 3.2 9.7 0.00 0.00 0.00 84 1013.8
20260506123016 18 203 3.2 8.0 0.00 0.00 0.00 84 1013.8
20260506122016 18 225 3.2 4.8 0.00 0.00 0.00 83 1013.8
20260506121016 18 225 1.6 3.2 0.00 0.00 0.00 83 1013.7
20260506120017 18 225 3.2 6.4 0.00 0.00 0.00 83 1013.8
20260506115036 18 225 3.2 6.4 0.00 0.00 0.00 83 1013.7
20260506114018 18 225 3.2 6.4 0.00 0.00 0.00 83 1013.6
20260506113036 18 225 3.2 9.7 0.00 0.00 0.00 83 1013.4
20260506112037 18 225 1.6 4.8 0.00 0.00 0.00 83 1013.2
20260506111016 18 203 1.6 4.8 0.00 0.00 0.00 83 1012.9
20260506110016 17 225 1.6 8.0 0.00 0.00 0.00 83 1012.8